{"data":{"norad_id":63372,"epoch":"2026-09-19T15:20:53.162880Z","epoch_age_seconds":233171,"freshness":"STALE","line1":"1 63372U 25063K   26262.63950420  .00021473  00000+0  64481-3 0  9996","line2":"2 63372  53.1590 225.9388 0000624 283.9099  76.1834 15.34401303 84538","mean_motion":15.34401303,"eccentricity":6.24e-5,"inclination_deg":53.159,"raan_deg":225.9388,"arg_perigee_deg":283.9099,"mean_anomaly_deg":76.1834,"bstar":0.00064481,"rev_number":8453,"period_min":93.84767838665,"perigee_km":462.27249922992,"apogee_km":463.12623560858,"semimajor_km":6840.8363674193,"source":"CELESTRAK","updated_at":"2026-09-21T09:00:34.973925Z"}}